Location: Bear Valley
(38.4650°N, 120.0390°W)
Time: 17:23:37
(UTC-07:00)

Tiangong 2 - Visible Passes

Search period start: 22 July 2018 00:00
Search period end: 01 August 2018 00:00
Orbit: 386 x 394 km, 42.8° (Epoch: 22 July)

Date Brightness Start Highest point End Pass type
(mag) Time Alt. Az. Time Alt. Az. Time Alt. Az.
22 Jul 1.0 21:25:02 10° WNW 21:28:14 89° S 21:30:06 22° ESE visible
23 Jul 2.4 22:04:28 10° W 22:07:11 27° SSW 22:07:11 27° SSW visible
24 Jul 1.6 21:06:31 10° WNW 21:09:35 48° SSW 21:12:00 15° SE visible
25 Jul 3.4 21:46:37 10° WSW 21:48:24 14° SW 21:49:11 13° SSW visible
26 Jul 2.8 20:48:10 10° W 20:50:51 25° SSW 20:53:30 10° SSE visible
